Preview of NWS' New Version of Forecast
This preview is not operational and should not be used for support decisions.
Latest weather observations around

Alexander City, Thomas C Russell Field Airport (KALX)

Using English Units (Switch to International System of Units)
Date/ Time (CDT) Wind (mph) Vis. (mi) Weather Sky Cond. Temp (°F) Rel. Humidity Wind Chill (°F) Heat Index (°F) Pressure Precip. (in)
Air Dwpt 6 hour Altimeter (inHg) Sea level (inHg) 1 hr 3 hr 6 hr
Max Min
Apr 19 23:15 N 9 10 Clear CLR 49 38     68% 45   30.21        
Apr 19 22:35 N 8 10 Clear CLR 50 39     67% 46   30.21        
Notice The following observation data may not be complete
Apr 19 22:15   10 Clear CLR          %              
Apr 19 21:55 N 6 10 Clear CLR 51 39     64%     30.22        
Notice The following observation data may not be complete
Apr 19 21:35   10 Clear CLR          %              
Apr 19 21:15 N 9 10 Clear CLR 52 40     62%     30.21        
Apr 19 20:35 N 13 10 Clear CLR 54 41     61%     30.2        
Apr 19 20:15 N 11 10 Clear CLR 54 41     60%     30.19        
Apr 19 19:55 N 10 10 Clear CLR 56 42     60%     30.19        
Apr 19 19:35 N 8 10 Clear CLR 56 42     60%     30.18        
Apr 19 19:15 N 10 10 Clear CLR 57 43     58%     30.18        
Apr 19 18:55 N 9 10 Clear CLR 59 44     58%     30.17        
Apr 19 18:35 N 14 10 Clear CLR 60 45     57%     30.16        
Apr 19 18:15 NNW 14 10 Clear CLR 62 45     55%     30.15        
Apr 19 17:55 NNW 13 10 Clear CLR 63 46     55%     30.14        
Apr 19 17:35 N 14 10 Clear CLR 64 45     50%     30.14        
Apr 19 17:15 N 15 10 Clear CLR 64 45     50%     30.13        
Apr 19 16:55 N 10 10 Clear CLR 65 47     50%     30.12        
Apr 19 16:35 NNW 15 10 Clear CLR 66 46     48%     30.12        
Apr 19 16:15 NW 11 10 Clear CLR 66 46     48%     30.12        
Apr 19 15:55 NW 9 10 Clear CLR 67 46     47%     30.11        
Apr 19 15:35 NNW 14 10 Clear CLR 67 46     46%     30.12        
Apr 19 15:15 NW 10 10 Clear CLR 68 47     47%     30.12        
Apr 19 14:55 W 13 10 Clear CLR 68 46     46%     30.12        
Apr 19 14:35 W 8 10 Clear CLR 67 46     46%     30.12        
Apr 19 14:15 NW 7 10 Clear CLR 68 47     46%     30.13        
Apr 19 13:55 WNW 14 10 Clear CLR 68 47     47%     30.13        
Apr 19 13:35 N 13 10 Clear CLR 67 46     46%     30.12        
Apr 19 13:15 NW 13 10 Clear CLR 67 47     48%     30.12        
Apr 19 12:55 NW 14 10 Clear CLR 68 48     48%     30.12       0
Apr 19 12:35 NW 8 10 Clear CLR 67 46     48%     30.12        
Apr 19 12:15   10 Clear CLR 67 46     47%     30.11        
Apr 19 11:55 NW 13 10 Clear CLR 67 45     46%     30.11   0    
Notice The following observation data may not be complete
Apr 19 11:35     Clear            %              
Apr 19 11:15 WNW 8 10 Clear CLR 66 47     50%     30.11   0    
Notice The following observation data may not be complete
Apr 19 10:55   10 Clear CLR          %              
Notice The following observation data may not be complete
Apr 19 10:35     Clear            %              
Notice The following observation data may not be complete
Apr 19 10:15     Clear            %              
Apr 19 09:55 NNW 10 10 Clear CLR 64 49     58%     30.09        
Apr 19 09:15 NNW 13 10 Clear CLR 63 48     58%     30.08        
Apr 19 08:55 NNW 14 10 Clear CLR 62 49     61%     30.07        
Apr 19 08:35 NNW 7 10 Clear CLR 62 50     65%     30.07        
Apr 19 08:15 NNW 6 10 Clear CLR 62 52     70%     30.06        
Apr 19 07:55 NW 8 10 Clear CLR 62 52     71%     30.06        
Apr 19 07:35 NW 8 10 Clear CLR 61 54     76%     30.05        
Notice The following observation data may not be complete
Apr 19 07:15   10 Clear CLR          %              
Apr 19 06:55 NW 6 10 Clear CLR 61 60     99%     30.03        
Apr 19 06:35 WNW 5 10 Clear CLR 60 60     100%     30.02        
Apr 19 06:15 W 3 10 Partly Cloudy SCT025 60 60     100%     30.01        
Apr 19 05:55 SW 3 10 Partly Cloudy SCT023 61 61     100%     29.99        
Apr 19 05:35 WSW 3 10 Partly Cloudy SCT023 61 61     100%     29.99        
Apr 19 05:15 SW 5 10 Mostly Cloudy BKN023 62 62     100%     29.98        
Apr 19 04:55 SW 5 10 Partly Cloudy SCT023 62 62     100%     29.98        
Apr 19 04:35 WSW 3 10 Partly Cloudy SCT011 SCT027 SCT032 62 62     100%     29.97        
Apr 19 04:15 WSW 3 10 Mostly Cloudy SCT028 BKN033 BKN042 62 62     100%     29.97        
Apr 19 03:55 SW 5 10 Partly Cloudy SCT034 SCT039 62 62     100%     29.97        
Apr 19 03:35 SW 5 10 Clear CLR 62 62     100%     29.96        
Apr 19 03:15 SW 5 10 Clear CLR 62 62     100%     29.96        
Apr 19 02:55 SSW 3 10 Clear CLR 63 63     100%     29.97        
Apr 19 02:35 SW 3 10 Clear CLR 63 63     99%     29.97        
Apr 19 02:15 SSW 5 10 Partly Cloudy SCT060 64 63     96%     29.97        
Apr 19 01:55 SW 5 10 Partly Cloudy SCT060 65 63     94%     29.98        
Apr 19 01:35 SW 6 10 Partly Cloudy SCT049 SCT060 65 63     92%     29.98        
Apr 19 01:15 SW 7 10 Partly Cloudy SCT049 SCT060 66 63     89%     29.99        
Apr 19 00:55 SW 7 10 Partly Cloudy SCT047 SCT060 67 62     86%     29.99        
Notice The following observation data may not be complete
Apr 19 00:35   10 Mostly Cloudy SCT045 BKN060          %              
Apr 19 00:15 SW 6 10 Cloudy SCT046 OVC060 67 61     80%     30        
Apr 18 23:55 SW 7 10 Cloudy OVC060 66 60     80%     30        
Apr 18 23:35 SSW 7 10 Mostly Cloudy BKN060 66 59     79%     29.99        
Apr 18 23:15 SW 5 10 Clear CLR 66 59     78%     29.99        
Apr 18 22:55 SSW 5 10 Clear CLR 66 59     76%     29.98        
Apr 18 22:35 SW 6 10 Clear CLR 69 59     70%     29.98        
Apr 18 22:15 WSW 5 10 Clear CLR 70 59     69%     29.98        
Apr 18 21:55 WSW 7 10 Clear CLR 71 59     67%   71 29.98        
Apr 18 21:35 WSW 7 10 Clear CLR 71 59     67%   71 29.98        
Apr 18 21:15 WSW 7 10 Clear CLR 69 59     69%     29.98        
Apr 18 20:55 WSW 3 10 Clear CLR 71 59     66%   71 29.97        
Apr 18 20:35 SW 6 10 Clear CLR 70 59     66%   70 29.96        
Apr 18 20:15 SW 3 10 Clear CLR 69 59     70%     29.96        
Apr 18 19:55 SW 6 10 Clear CLR 72 58     61%   72 29.96        
Apr 18 19:35 SW 5 10 Clear CLR 74 58     58%   74 29.96        
Apr 18 19:15 WSW 6 10 Clear CLR 75 58     56%   75 29.95        
Apr 18 18:50 SW 7 10 Clear CLR 77 58     53%   77 29.95        
Apr 18 18:35 SW 7 10 Clear CLR 78 58     51%   78 29.95        
Apr 18 18:15 SW 11 10 Clear CLR 79 58     49%   79 29.94        
Apr 18 17:55 SW 9 10 Clear CLR 79 58     49%   79 29.94        
Apr 18 17:35 SSW 13 10 Clear CLR 80 59     50%   80 29.94        
Apr 18 17:15 SSW 14 10 Clear CLR 80 60     51%   80 29.94        
Apr 18 16:55 SSW 13 10 Clear CLR 80 60     50%   80 29.95        
Apr 18 16:35 SSW 17 10 Clear CLR 80 59     49%   81 29.95        
Apr 18 16:10 SSW 16 10 Clear CLR 80 60     50%   81 29.96        
Apr 18 15:55 SW 11 10 Clear CLR 80 60     50%   80 29.96        
Apr 18 15:35 SSW 11 10 Clear CLR 80 60     50%   80 29.97        
Apr 18 15:15 SSW 15 10 Clear CLR 79 58     50%   79 29.98        
Apr 18 14:55 SW 13 10 Clear CLR 79 59     50%   79 29.99        
Apr 18 14:35 SSW 13 10 Clear CLR 79 59     50%   79 30        
Apr 18 14:10 SW 13 10 Clear CLR 79 57     47%   78 30.01        
Apr 18 13:55 WSW 17 10 Clear CLR 78 56     48%   77 30.02        
Apr 18 13:35 SSW 11 10 Clear CLR 77 58     52%   77 30.01        
Apr 18 13:15 WSW 13 10 Clear CLR 77 58     52%   77 30.02        
Apr 18 12:50 SSW 14 10 Clear CLR 76 58     54%   75 30.03        
Apr 18 12:35 SW 9 10 Clear CLR 75 59     57%   75 30.04        
Apr 18 12:15 W 10 10 Clear CLR 74 60     60%   74 30.04        
Apr 18 11:55 SW 11 10 Clear CLR 73 59     62%   73 30.05        
Apr 18 11:30 W 13 10 Clear CLR 72 59     63%   72 30.06        
Apr 18 11:15 WSW 10 10 Clear CLR 72 59     64%   72 30.05        
Apr 18 10:55 W 14 10 Clear CLR 71 59     65%   71 30.05        
Apr 18 10:35 SW 10 10 Clear CLR 70 60     70%     30.04        
Apr 18 10:10 SW 9 10 Clear CLR 68 60     76%     30.05        
Apr 18 09:55 WSW 11 10 Clear CLR 67 60     77%     30.04        
Apr 18 09:35 SW 13 10 Clear CLR 66 60     80%     30.04        
Apr 18 09:15 SW 11 10 Partly Cloudy SCT016 64 60     86%     30.04        
Apr 18 08:55 SW 11 10 Partly Cloudy SCT016 63 60     90%     30.04        
Apr 18 08:35 WSW 9 10 Partly Cloudy SCT014 62 60     92%     30.04        
Apr 18 08:15 SW 11 10 Mostly Cloudy BKN012 60 60     97%     30.04        
Apr 18 07:50 WSW 8 10 Mostly Cloudy BKN008 59 59     100%     30.05        
Apr 18 07:35 SW 8 10 Cloudy OVC008 58 58     100%     30.05        
Apr 18 07:15 SW 7 10 Cloudy OVC006 57 57     100%     30.04        
Apr 18 06:55 SW 7 10 Cloudy OVC006 55 55     100%     30.03        
Apr 18 06:35 Calm 10 Cloudy OVC006 52 52     100%     30.03        
Apr 18 06:15 Calm 10 Cloudy OVC008 51 51     100%     30.01        
Apr 18 05:55 Calm 10 Mostly Cloudy BKN010 49 49     100%     30.01        
Apr 18 05:35 Calm 10 Clear CLR 48 48     100%     29.99        
Apr 18 05:15 Calm 10 Clear CLR 50 50     100%     29.99        
Apr 18 04:55 Calm 10 Clear CLR 47 47     100%     29.98        
Apr 18 04:35 SSW 3 10 Clear CLR 50 49     97% 49   29.99        
Apr 18 04:15 SSW 5 10 Clear CLR 49 48     97% 47   29.98        
Apr 18 03:55 SSW 5 10 Clear CLR 48 48     98% 46   29.98        
Apr 18 03:35 SSW 5 10 Clear CLR 50 48     93%     29.98        
Apr 18 03:15 SSW 5 10 Clear CLR 52 48     87%     29.98        
Apr 18 02:55 SSW 5 10 Clear CLR 52 47     84%     29.98        
Apr 18 02:35 SSW 5 10 Clear CLR 50 47     92% 48   29.98        
Apr 18 02:15 SSW 5 10 Clear CLR 51 47     89%     29.98        
Apr 18 01:55 SSW 5 10 Clear CLR 54 47     80%     29.98        
Apr 18 01:35 SSW 6 10 Clear CLR 55 48     76%     29.98        
Apr 18 01:15 SSW 7 10 Clear CLR 56 48     76%     29.99        
Apr 18 00:55 S 5 10 Clear CLR 58 49     72%     29.99        
Apr 18 00:35 S 6 10 Clear CLR 58 49     72%     29.99        
Apr 18 00:15 SSW 5 10 Clear CLR 59 50     71%     29.99        
Apr 17 23:55 SSW 7 10 Clear CLR 59 50     73%     30        
Apr 17 23:35 SSW 6 10 Clear CLR 60 50     71%     30        
Apr 17 23:15 SSW 7 10 Clear CLR 60 51     72%     30        
Apr 17 22:55 SSW 7 10 Clear CLR 55 51     85%     30        
Apr 17 22:35 Calm 10 Clear CLR 53 51     93%     30        
Apr 17 22:15 Calm 10 Clear CLR 54 51     92%     30        
Apr 17 21:55 Calm 10 Clear CLR 54 52     93%     30        
Apr 17 21:35 Calm 10 Clear CLR 55 52     89%     30        
Apr 17 21:15 Calm 10 Clear CLR 56 52     86%     30        
Apr 17 20:55 Calm 10 Clear CLR 57 52     83%     29.99        
Apr 17 20:35 Calm 10 Clear CLR 58 52     83%     29.99        
Apr 17 20:15 Calm 10 Clear CLR 59 52     78%     29.99        
Apr 17 19:55 Calm 10 Clear CLR 62 52     70%     29.99        
Apr 17 19:35 SSW 5 10 Clear CLR 64 52     67%     29.99        
Apr 17 19:15 SSW 5 10 Clear CLR 67 52     57%     29.99        
Apr 17 18:55 SSW 5 10 Clear CLR 71 51     49%   70 29.99        
Apr 17 18:35 SW 9 10 Clear CLR 72 52     48%   72 29.99        
Apr 17 18:15 SW 10 10 Clear CLR 73 52     47%   72 29.99        
Apr 17 17:55 SW 10 10 Clear CLR 74 52     45%   73 29.99        
Apr 17 17:35 SW 11 10 Clear CLR 74 51     44%   74 29.99        
Apr 17 17:15 SW 10 10 Clear CLR 75 52     45%   74 29.99        
Apr 17 16:55 WSW 9 10 Clear CLR 75 51     43%   75 29.99        
Apr 17 16:35 SW 14 10 Clear CLR 76 51     42%   75 30        
Apr 17 16:15 SW 10 10 Clear CLR 76 51     42%   75 30.01        
Apr 17 15:55 WSW 13 10 Clear CLR 76 52     44%   75 30.01        
Apr 17 15:35 SW 9 10 Clear CLR 75 53     45%   74 30.02        
Apr 17 15:15 SW 8 10 Clear CLR 75 52     45%   75 30.03        
Apr 17 14:55 SW 10 10 Clear CLR 75 52     45%   74 30.04        
Apr 17 14:35 SW 15 10 Clear CLR 74 52     46%   74 30.05        
Apr 17 14:15 W 10 10 Clear CLR 73 52     47%   72 30.05        
Apr 17 13:55 W 10 10 Clear CLR 72 51     47%   71 30.06        
Apr 17 13:35 W 8 10 Clear CLR 73 52     48%   72 30.07        
Apr 17 13:15 SW 15 10 Clear CLR 71 51     48%   71 30.07        
Apr 17 12:55 W 9 10 Clear CLR 71 50     48%   70 30.09        
Apr 17 12:35 W 10 10 Clear CLR 70 49     49%     30.09        
Apr 17 12:15 WSW 10 10 Clear CLR 68 49     49%     30.1        
Apr 17 11:55 WSW 11 10 Clear CLR 67 48     51%     30.11        
Apr 17 11:35 W 11 10 Clear CLR 67 48     52%     30.12        
Apr 17 11:15 WSW 13 10 Clear CLR 65 47     53%     30.13        
Apr 17 10:55 W 10 10 Clear CLR 65 47     52%     30.13        
Apr 17 10:35 WSW 11 10 Clear CLR 63 46     53%     30.14        
Apr 17 10:15 WSW 9 10 Clear CLR 62 45     54%     30.14        
Apr 17 10:00 W 7 10 Clear CLR 61 45     56%     30.15        
Apr 17 09:35 W 6 10 Clear CLR 57 44     63%     30.16        
Apr 17 09:15 SSW 3 10 Clear CLR 54 43     67%     30.15        
Apr 17 08:55 SSE 3 10 Clear CLR 52 44     75%     30.15        
Apr 17 08:35 Calm 10 Clear CLR 48 43     84%     30.15        
Apr 17 08:15 Calm 10 Clear CLR 45 43     91%     30.15        
Apr 17 07:55 Calm 10 Clear CLR 42 41     94%     30.15        
Apr 17 07:35 Calm 10 Clear CLR 40 40     100%     30.14        
Apr 17 07:15 Calm 10 Clear CLR 37 37     100%     30.14        
Apr 17 06:55 Calm 10 Clear CLR 34 34     100%     30.14        
Apr 17 06:35 Calm 10 Partly Cloudy SCT001 33 33     100%     30.13        
Apr 17 06:15 Calm 10 Clear CLR 35 35     100%     30.12        
Apr 17 05:55 Calm 10 Clear CLR 34 34     100%     30.13        
Apr 17 05:35 Calm 10 Clear CLR 34 34     100%     30.12        
Apr 17 05:15 Calm 10 Clear CLR 35 35     100%     30.11        
Apr 17 04:55 Calm 10 Clear CLR 34 34     100%     30.11        
Apr 17 04:35 Calm 10 Clear CLR 35 35     100%     30.1        
Apr 17 04:15 Calm 10 Clear CLR 36 36     100%     30.1        
Apr 17 03:55 Calm 10 Clear CLR 37 37     100%     30.1        
Apr 17 03:35 Calm 10 Clear CLR 37 37     100%     30.1        
Apr 17 03:20 Calm 10 Clear CLR 37 37     100%     30.09        
Apr 17 02:55 Calm 10 Clear CLR 37 37     100%     30.09        
Apr 17 02:35 Calm 10 Clear CLR 37 37     100%     30.09        
Apr 17 02:15 Calm 10 Clear CLR 38 38     100%     30.09        
Apr 17 01:55 Calm 10 Clear CLR 38 38     100%     30.1        
Apr 17 01:35 Calm 10 Clear CLR 37 37     100%     30.1        
Apr 17 01:15 Calm 10 Clear CLR 39 39     100%     30.1        
Apr 17 00:55 Calm 10 Clear CLR 39 39     100%     30.11        
Apr 17 00:40 Calm 10 Clear CLR 38 38     100%     30.11        
Apr 17 00:15 Calm 10 Clear CLR 39 39     100%     30.11        
Apr 16 23:55 Calm 10 Clear CLR 40 40     100%     30.11        
Apr 16 23:35 Calm 10 Clear CLR 41 40     99%     30.11        
Jun 12 07:15 Calm 10 Mostly Cloudy BKN004 74 72     94%   75 30.18        
Jun 12 05:35 Calm 10 Mostly Cloudy BKN011 70 69     96%     30.16        
Jun 12 01:15 Calm 10 Partly Cloudy SCT033 72 71     96%   74 30.15        
Jun 11 17:55 ESE 3 10 Clear CLR 85 69     60%   89 30.09        
Jun 11 16:55 SE 6 10 Clear   87 68     54%   91 30.11        
Jun 11 16:15 SE 5 10 Clear CLR 87 68     54%   91 30.13        
Jun 11 14:55 SE 6 10 Clear   86 68     54%   90 30.14        
Notice The following observation data may not be complete
Jun 11 05:15   10 Clear CLR          %              
Jun 10 10:15 SE 3 10 Clear CLR 81 62     53%   82 30.11        
Notice The following observation data may not be complete
Jun 09 16:15   10 Partly Cloudy SCT055 SCT065          %              
Jun 08 17:35 NNW 3 10 Clear CLR 80 57     46%   79 29.86        
Notice The following observation data may not be complete
Jun 08 12:15   10 Clear CLR          %              
Notice The following observation data may not be complete
Jun 08 11:15   10 Partly Cloudy SCT035          %              
Jun 08 09:15 SE 3 10 Partly Cloudy SCT041 69 60     71%     29.93        
Notice The following observation data may not be complete
Jun 08 07:55   10 Partly Cloudy SCT040 SCT090          %              
Jun 08 07:35 Calm 10 Clear CLR 65 59     83%     29.92        
Jun 07 20:55 N 5 10 Clear CLR 72 59     63%   72 29.85        
Jun 07 15:15 E 7 10 Partly Cloudy SCT032 SCT060 78 67     68%   79 29.79        
Jun 07 10:55 E 6 10 Mostly Cloudy BKN024 BKN031 76 66     73%   76 29.81        
Jun 06 03:35 Calm 5 Fog/Mist OVC004 71 71     99%   73 29.79        
Jun 06 00:55 Calm 7 Cloudy OVC002 72 71     98%   73 29.83       0
Notice The following observation data may not be complete
Jun 05 18:35   10 Partly Cloudy SCT012          %              
Jun 05 16:35 WSW 5 10 Partly Cloudy SCT018 76 71     82%   78 29.83        
Jun 05 15:15 S 9 10 Partly Cloudy SCT040 78 70     75%   80 29.81